Regional Weather Roundup
Issued by NWS

Home | Current Version | Previous Version | Text Only | Print | Product List | Glossary On
Versions: 1 2 3 4 5 6 7 8 9 10 11 12 13 14 15 16 17 18 19 20 21 22 23 24 25 26 27 28
000
ASUS45 KPSR 311610
RWRAZ

ARIZONA HOURLY REGIONAL WEATHER ROUNDUP
NATIONAL WEATHER SERVICE PHOENIX AZ
900 AM MST WED AUG 31 2016

NOTE: FAIR INDICATES FEW OR NO CLOUDS BELOW 12,000 FEET WITH NO
SIGNIFICANT WEATHER AND/OR OBSTRUCTIONS TO VISIBILITY.

AZZ001>003-036-311700-
NORTHWEST ARIZONA

CITY           SKY/WX    TMP DP  RH WIND       PRES   REMARKS
BULLHEAD CITY  SUNNY     91  48  22 CALM      29.84R
KINGMAN        MOSUNNY   85  51  31 CALM      30.04S
$$

AZZ004>008-015-016-018-311700-
NORTH CENTRAL ARIZONA

CITY           SKY/WX    TMP DP  RH WIND       PRES   REMARKS
GRAND CANYON   SUNNY     73  45  36 S9        30.32R
PRESCOTT       MOSUNNY   69  53  56 CALM      30.21R
FLAGSTAFF      SUNNY     68  48  48 CALM      30.35R
PAYSON         SUNNY     73  55  53 CALM      30.26S
PAGE           SUNNY     77  38  24 NW6       30.15S
$$

AZZ009>014-017-311700-
NORTHEAST ARIZONA

CITY           SKY/WX    TMP DP  RH WIND       PRES   REMARKS
WINSLOW        SUNNY     75  52  44 SE12      30.22S
SAINT JOHNS    SUNNY     73  51  46 E9        30.27S
WINDOW ROCK    SUNNY     68  50  52 VRB3      30.37S
SHOW LOW       SUNNY     68  46  45 CALM      30.32S
$$

AZZ023-311700-
GREATER PHOENIX AREA

CITY           SKY/WX    TMP DP  RH WIND       PRES   REMARKS
PHOENIX        MOSUNNY   91  58  32 E8        29.91R
BUCKEYE        SUNNY     93  55  27 E17       29.90R
GLENDALE       MOSUNNY   95  59  30 NE9G16    29.92S
LUKE AFB       SUNNY     93  58  30 E9        29.90S
DEER VALLEY    SUNNY     92  55  28 SE8       29.93R
SCOTTSDALE     SUNNY     91  58  32 E9        29.95R
MESA-FALCON    MOSUNNY  N/A N/A N/A VRB5      29.91R
MESA-GATEWAY   MOSUNNY   90  61  37 E7        29.94R
CHANDLER       MOSUNNY   91  61  35 E9        29.93R
$$

AZZ027-028-311700-
SOUTHWEST MARICOPA COUNTY AND PINAL COUNTY

CITY           SKY/WX    TMP DP  RH WIND       PRES   REMARKS
CASA GRANDE    SUNNY     91  57  31 E10       29.96R
GILA BEND      SUNNY     94  54  26 VRB2      29.87R
$$

AZZ503-504-507>509-311700-
SOUTHEAST ARIZONA

CITY           SKY/WX    TMP DP  RH WIND       PRES   REMARKS
TUCSON         SUNNY     87  59  38 SE16G26   30.03R
DAVIS-MONTHAN  SUNNY     86  59  39 E8        30.01S
RYAN FIELD     SUNNY     84  59  42 E20G26    30.01R
NOGALES        SUNNY     81  60  48 E14       30.10R
SIERRA VISTA   CLOUDY    73  59  61 S9        30.19R
DOUGLAS        CLOUDY    74  60  61 E17       30.15S
SAFFORD        MOSUNNY   80  59  48 SE14      30.11S
$$

AZZ020-021-025-026-031-311700-
SOUTHWEST ARIZONA

CITY           SKY/WX    TMP DP  RH WIND       PRES   REMARKS
YUMA           MOSUNNY   92  72  51 SE17      29.80R
$$

CAZ031-033-041-043-047-048-061-311700-
SOUTHERN CALIFORNIA

CITY           SKY/WX    TMP DP  RH WIND       PRES   REMARKS
DOWNTOWN L.A.  SUNNY     74  67  78 CALM      29.85S HAZE
L.A. AIRPORT   PTSUNNY   72  66  81 SW7       29.86S HAZE
SAN DIEGO      CLOUDY    67  65  93 CALM      29.88R FOG
BURBANK        SUNNY     76  61  59 VRB3      29.87R
ONTARIO        MOSUNNY   78  61  55 CALM      29.87R
RIVERSIDE      SUNNY     79  61  53 CALM      29.87S
PALM SPRINGS   SUNNY     97  48  18 CALM      29.78S
EL CENTRO NAS  MOSUNNY   95  55  26 SE7       29.77R
IMPERIAL       SUNNY     97  60  29 S6        29.75R
BLYTHE         SUNNY     97  48  18 SE5       29.81R
NEEDLES        MOSUNNY   96  50  20 N5        29.84S
$$

NVZ020-UTZ003-311700-
SOUTHERN NEVADA-UTAH

CITY           SKY/WX    TMP DP  RH WIND       PRES   REMARKS
LAS VEGAS      MOSUNNY   91  38  15 E5        29.91R
SALT LAKE CITY MOSUNNY   84  37  18 S10       30.07R
$$

NMZ009-TXZ055-311700-
NEW MEXICO-WEST TEXAS

CITY           SKY/WX    TMP DP  RH WIND       PRES   REMARKS
ALBUQUERQUE    MOSUNNY   70  56  61 NW7       30.31S
EL PASO        CLOUDY    72  64  76 E7        30.20R
$$


........................KEY........................
SKY/WX - SKY CONDITION/WEATHER
TMP    - TEMPERATURE IN FAHRENHEIT
DP     - DEW POINT IN FAHRENHEIT
RH     - RELATIVE HUMIDITY IN PERCENT
WIND   - DIRECTION AND SPEED IN MILES PER HOUR (MPH)
VRB    - VARIABLE WIND DIRECTION
PRES   - MEAN SEA LEVEL PRESSURE IN INCHES OF MERCURY
         F - FALLING PRESSURE   R - RISING PRESSURE
         S - STEADY PRESSURE
VSB    - VISIBILITY IN MILES
HX     - HEAT INDEX IN FAHRENHEIT
WCI    - WIND CHILL INDEX IN FAHRENHEIT
TC     - TEMPERATURE IN CELSIUS WHICH IS ALSO KNOWN AS
         TEMPERATURE IN CENTIGRADE
AFB    - AIR FORCE BASE
         LUKE AFB IS LUKE AIR FORCE BASE
         DAVIS-MONTHAN IS DAVIS-MONTHAN AIR FORCE BASE
NAS    - NAVAL AIR STATION
         EL CENTRO NAS IS EL CENTRO NAVAL AIR STATION
N/A    - NOT AVAILABLE





USA.gov is the U.S. government's official web portal to all federal, state and local government web resources and services.